contact:dominique.lefevre@mio.osupytheas.fr, maurice.libes@osupytheas.fr, didier.mallarino@osupytheas.fr
Project:EMSO http://www.emso-fr.org/EMSO-France
Depth: 2436.0 m
Title:EMSO Ligure Ouest : Data MII capteur MICROCAT
DateTime_Computer,Latitude,Longitude,Temperature,Conductivity,Pressure,DateTime_Instrument
DateTime_Computer,Latitude,Longitude,degC,S m-1,dbar,DateTime_Instrument
2022-08-26T00:00:29Z,42.805,6.029,13.3087,4.60089,2470.567,2022-8-26T02:02:19Z
2022-08-26T00:03:32Z,42.805,6.029,13.3093,4.60108,2470.577,2022-8-26T02:05:22Z
2022-08-26T00:06:35Z,42.805,6.029,13.3078,4.60069,2470.591,2022-8-26T02:08:25Z
2022-08-26T00:09:38Z,42.805,6.029,13.3079,4.60094,2470.577,2022-8-26T02:11:28Z
2022-08-26T00:12:41Z,42.805,6.029,13.3081,4.60079,2470.567,2022-8-26T02:14:31Z
2022-08-26T00:15:44Z,42.805,6.029,13.3069,4.60081,2470.591,2022-8-26T02:17:35Z
2022-08-26T00:18:47Z,42.805,6.029,13.3062,4.60077,2470.553,2022-8-26T02:20:38Z
2022-08-26T00:21:50Z,42.805,6.029,13.3067,4.60082,2470.591,2022-8-26T02:23:41Z
2022-08-26T00:24:54Z,42.805,6.029,13.3077,4.60077,2470.591,2022-8-26T02:26:44Z
2022-08-26T00:27:57Z,42.805,6.029,13.3090,4.60086,2470.553,2022-8-26T02:29:47Z
2022-08-26T00:31:00Z,42.805,6.029,13.3073,4.60080,2470.591,2022-8-26T02:32:50Z
2022-08-26T00:34:03Z,42.805,6.029,13.3080,4.60084,2470.614,2022-8-26T02:35:53Z
2022-08-26T00:37:06Z,42.805,6.029,13.3076,4.60081,2470.591,2022-8-26T02:38:56Z
2022-08-26T00:40:09Z,42.805,6.029,13.3076,4.60114,2470.544,2022-8-26T02:42:00Z
2022-08-26T00:43:12Z,42.805,6.029,13.3088,4.60089,2470.567,2022-8-26T02:45:03Z
2022-08-26T00:46:15Z,42.805,6.029,13.3098,4.60079,2470.544,2022-8-26T02:48:06Z
2022-08-26T00:49:19Z,42.805,6.029,13.3085,4.60087,2470.544,2022-8-26T02:51:09Z
2022-08-26T00:52:22Z,42.805,6.029,13.3085,4.60088,2470.553,2022-8-26T02:54:12Z
2022-08-26T00:55:25Z,42.805,6.029,13.3105,4.60085,2470.553,2022-8-26T02:57:15Z
2022-08-26T00:58:28Z,42.805,6.029,13.3107,4.60094,2470.553,2022-8-26T03:00:18Z
2022-08-26T01:01:31Z,42.805,6.029,13.3105,4.60069,2470.614,2022-8-26T03:03:21Z
2022-08-26T01:04:34Z,42.805,6.029,13.3104,4.60072,2470.553,2022-8-26T03:06:24Z
2022-08-26T01:07:37Z,42.805,6.029,13.3088,4.60081,2470.567,2022-8-26T03:09:28Z
2022-08-26T01:10:40Z,42.805,6.029,13.3086,4.60102,2470.567,2022-8-26T03:12:31Z
2022-08-26T01:13:43Z,42.805,6.029,13.3084,4.60084,2470.544,2022-8-26T03:15:34Z
2022-08-26T01:16:47Z,42.805,6.029,13.3087,4.60091,2470.567,2022-8-26T03:18:37Z
2022-08-26T01:19:50Z,42.805,6.029,13.3080,4.60089,2470.567,2022-8-26T03:21:40Z
2022-08-26T01:22:53Z,42.805,6.029,13.3082,4.60070,2470.52,2022-8-26T03:24:43Z
2022-08-26T01:25:56Z,42.805,6.029,13.3084,4.60099,2470.544,2022-8-26T03:27:46Z
2022-08-26T01:28:59Z,42.805,6.029,13.3074,4.60108,2470.567,2022-8-26T03:30:49Z
2022-08-26T01:32:02Z,42.805,6.029,13.3076,4.60077,2470.553,2022-8-26T03:33:53Z
2022-08-26T01:35:05Z,42.805,6.029,13.3073,4.60079,2470.53,2022-8-26T03:36:56Z
2022-08-26T01:38:08Z,42.805,6.029,13.3026,4.60129,2470.53,2022-8-26T03:39:59Z
2022-08-26T01:41:12Z,42.805,6.029,13.3050,4.60111,2470.567,2022-8-26T03:43:02Z
2022-08-26T01:44:15Z,42.805,6.029,13.3008,4.60094,2470.53,2022-8-26T03:46:05Z
2022-08-26T01:47:18Z,42.805,6.029,13.3031,4.60092,2470.591,2022-8-26T03:49:08Z
2022-08-26T01:50:21Z,42.805,6.029,13.3058,4.60110,2470.53,2022-8-26T03:52:11Z
2022-08-26T01:53:24Z,42.805,6.029,13.3059,4.60150,2470.577,2022-8-26T03:55:14Z
2022-08-26T01:56:27Z,42.805,6.029,13.3078,4.60155,2470.53,2022-8-26T03:58:18Z
2022-08-26T01:59:30Z,42.805,6.029,13.3076,4.60135,2470.553,2022-8-26T04:01:21Z
2022-08-26T02:02:33Z,42.805,6.029,13.3085,4.60112,2470.567,2022-8-26T04:04:24Z
2022-08-26T02:05:37Z,42.805,6.029,13.3096,4.60139,2470.52,2022-8-26T04:07:27Z
2022-08-26T02:08:40Z,42.805,6.029,13.3091,4.60119,2470.567,2022-8-26T04:10:30Z
2022-08-26T02:11:43Z,42.805,6.029,13.3093,4.60097,2470.544,2022-8-26T04:13:33Z
2022-08-26T02:14:46Z,42.805,6.029,13.3090,4.60109,2470.53,2022-8-26T04:16:36Z
2022-08-26T02:17:49Z,42.805,6.029,13.3100,4.60106,2470.544,2022-8-26T04:19:39Z
2022-08-26T02:20:52Z,42.805,6.029,13.3101,4.60107,2470.544,2022-8-26T04:22:43Z
2022-08-26T02:23:55Z,42.805,6.029,13.3105,4.60115,2470.567,2022-8-26T04:25:46Z
2022-08-26T02:26:58Z,42.805,6.029,13.3106,4.60108,2470.553,2022-8-26T04:28:49Z
2022-08-26T02:30:02Z,42.805,6.029,13.3099,4.60119,2470.53,2022-8-26T04:31:52Z
2022-08-26T02:33:05Z,42.805,6.029,13.3103,4.60099,2470.591,2022-8-26T04:34:55Z
2022-08-26T02:36:08Z,42.805,6.029,13.3101,4.60109,2470.567,2022-8-26T04:37:58Z
2022-08-26T02:39:11Z,42.805,6.029,13.3094,4.60107,2470.553,2022-8-26T04:41:01Z
2022-08-26T02:42:14Z,42.805,6.029,13.3097,4.60109,2470.567,2022-8-26T04:44:04Z
2022-08-26T02:45:17Z,42.805,6.029,13.3097,4.60131,2470.567,2022-8-26T04:47:08Z
2022-08-26T02:48:20Z,42.805,6.029,13.3096,4.60125,2470.544,2022-8-26T04:50:11Z
2022-08-26T02:51:23Z,42.805,6.029,13.3096,4.60106,2470.53,2022-8-26T04:53:14Z
2022-08-26T02:54:27Z,42.805,6.029,13.3096,4.60115,2470.567,2022-8-26T04:56:17Z
2022-08-26T02:57:30Z,42.805,6.029,13.3090,4.60110,2470.544,2022-8-26T04:59:20Z
2022-08-26T03:00:33Z,42.805,6.029,13.3091,4.60109,2470.553,2022-8-26T05:02:23Z
2022-08-26T03:03:36Z,42.805,6.029,13.3098,4.60117,2470.567,2022-8-26T05:05:26Z
2022-08-26T03:06:39Z,42.805,6.029,13.3096,4.60130,2470.614,2022-8-26T05:08:29Z
2022-08-26T03:09:42Z,42.805,6.029,13.3093,4.60110,2470.567,2022-8-26T05:11:32Z
2022-08-26T03:12:45Z,42.805,6.029,13.3098,4.60108,2470.553,2022-8-26T05:14:36Z
2022-08-26T03:15:48Z,42.805,6.029,13.3098,4.60111,2470.553,2022-8-26T05:17:39Z
2022-08-26T03:18:51Z,42.805,6.029,13.3098,4.60120,2470.544,2022-8-26T05:20:42Z
2022-08-26T03:21:55Z,42.805,6.029,13.3099,4.60110,2470.53,2022-8-26T05:23:45Z
2022-08-26T03:24:58Z,42.805,6.029,13.3097,4.60103,2470.567,2022-8-26T05:26:48Z
2022-08-26T03:28:01Z,42.805,6.029,13.3086,4.60104,2470.567,2022-8-26T05:29:51Z
2022-08-26T03:31:04Z,42.805,6.029,13.3085,4.60111,2470.553,2022-8-26T05:32:54Z
2022-08-26T03:34:07Z,42.805,6.029,13.3080,4.60112,2470.591,2022-8-26T05:35:57Z
2022-08-26T03:37:10Z,42.805,6.029,13.3089,4.60125,2470.591,2022-8-26T05:39:01Z
2022-08-26T03:40:13Z,42.805,6.029,13.3087,4.60100,2470.553,2022-8-26T05:42:04Z
2022-08-26T03:43:16Z,42.805,6.029,13.3086,4.60087,2470.577,2022-8-26T05:45:07Z
2022-08-26T03:46:20Z,42.805,6.029,13.3093,4.60089,2470.577,2022-8-26T05:48:10Z
2022-08-26T03:49:23Z,42.805,6.029,13.3091,4.60087,2470.567,2022-8-26T05:51:13Z
2022-08-26T03:52:26Z,42.805,6.029,13.3081,4.60081,2470.577,2022-8-26T05:54:16Z
2022-08-26T03:55:29Z,42.805,6.029,13.3061,4.60087,2470.614,2022-8-26T05:57:19Z
2022-08-26T03:58:32Z,42.805,6.029,13.3067,4.60097,2470.591,2022-8-26T06:00:22Z
2022-08-26T04:01:35Z,42.805,6.029,13.3068,4.60073,2470.614,2022-8-26T06:03:26Z
2022-08-26T04:04:38Z,42.805,6.029,13.3061,4.60066,2470.567,2022-8-26T06:06:29Z
2022-08-26T04:07:41Z,42.805,6.029,13.3048,4.60069,2470.614,2022-8-26T06:09:32Z
2022-08-26T04:10:45Z,42.805,6.029,13.3037,4.60082,2470.591,2022-8-26T06:12:35Z
2022-08-26T04:13:48Z,42.805,6.029,13.3029,4.60089,2470.6,2022-8-26T06:15:38Z
2022-08-26T04:16:51Z,42.805,6.029,13.3026,4.60087,2470.624,2022-8-26T06:18:41Z
2022-08-26T04:19:54Z,42.805,6.029,13.3029,4.60094,2470.567,2022-8-26T06:21:44Z
2022-08-26T04:22:57Z,42.805,6.029,13.3041,4.60110,2470.614,2022-8-26T06:24:47Z
2022-08-26T04:26:00Z,42.805,6.029,13.3047,4.60087,2470.577,2022-8-26T06:27:51Z
2022-08-26T04:29:03Z,42.805,6.029,13.3054,4.60099,2470.577,2022-8-26T06:30:54Z
2022-08-26T04:32:06Z,42.805,6.029,13.3051,4.60113,2470.637,2022-8-26T06:33:57Z
2022-08-26T04:35:10Z,42.805,6.029,13.3056,4.60102,2470.614,2022-8-26T06:37:00Z
2022-08-26T04:38:13Z,42.805,6.029,13.3066,4.60096,2470.614,2022-8-26T06:40:03Z
2022-08-26T04:41:16Z,42.805,6.029,13.3059,4.60096,2470.6,2022-8-26T06:43:06Z
2022-08-26T04:44:19Z,42.805,6.029,13.3065,4.60106,2470.614,2022-8-26T06:46:09Z
2022-08-26T04:47:22Z,42.805,6.029,13.3078,4.60082,2470.614,2022-8-26T06:49:12Z
2022-08-26T04:50:25Z,42.805,6.029,13.3084,4.60080,2470.637,2022-8-26T06:52:16Z
2022-08-26T04:53:28Z,42.805,6.029,13.3083,4.60094,2470.614,2022-8-26T06:55:19Z
2022-08-26T04:56:31Z,42.805,6.029,13.3067,4.60079,2470.624,2022-8-26T06:58:22Z
2022-08-26T04:59:35Z,42.805,6.029,13.3073,4.60092,2470.661,2022-8-26T07:01:25Z
2022-08-26T05:02:38Z,42.805,6.029,13.3089,4.60135,2470.661,2022-8-26T07:04:28Z
2022-08-26T05:05:41Z,42.805,6.029,13.3101,4.60099,2470.591,2022-8-26T07:07:31Z
2022-08-26T05:08:44Z,42.805,6.029,13.3102,4.60104,2470.6,2022-8-26T07:10:34Z
2022-08-26T05:11:47Z,42.805,6.029,13.3105,4.60076,2470.646,2022-8-26T07:13:37Z
2022-08-26T05:14:50Z,42.805,6.029,13.3101,4.60124,2470.637,2022-8-26T07:16:40Z
2022-08-26T05:17:53Z,42.805,6.029,13.3084,4.60097,2470.624,2022-8-26T07:19:44Z
2022-08-26T05:20:56Z,42.805,6.029,13.3078,4.60107,2470.637,2022-8-26T07:22:47Z
2022-08-26T05:24:00Z,42.805,6.029,13.3080,4.60123,2470.637,2022-8-26T07:25:50Z
2022-08-26T05:27:03Z,42.805,6.029,13.3079,4.60120,2470.637,2022-8-26T07:28:53Z
2022-08-26T05:30:06Z,42.805,6.029,13.3098,4.60142,2470.624,2022-8-26T07:31:56Z
2022-08-26T05:33:09Z,42.805,6.029,13.3116,4.60130,2470.6,2022-8-26T07:34:59Z
2022-08-26T05:36:12Z,42.805,6.029,13.3111,4.60122,2470.646,2022-8-26T07:38:02Z
2022-08-26T05:39:15Z,42.805,6.029,13.3103,4.60107,2470.614,2022-8-26T07:41:05Z
2022-08-26T05:42:18Z,42.805,6.029,13.3074,4.60076,2470.661,2022-8-26T07:44:09Z
2022-08-26T05:45:21Z,42.805,6.029,13.3051,4.60070,2470.624,2022-8-26T07:47:12Z
2022-08-26T05:48:24Z,42.805,6.029,13.3044,4.60100,2470.646,2022-8-26T07:50:15Z
2022-08-26T05:51:28Z,42.805,6.029,13.3051,4.60079,2470.6,2022-8-26T07:53:18Z
2022-08-26T05:54:31Z,42.805,6.029,13.3062,4.60097,2470.6,2022-8-26T07:56:21Z
2022-08-26T05:57:34Z,42.805,6.029,13.3056,4.60133,2470.637,2022-8-26T07:59:24Z
2022-08-26T06:00:37Z,42.805,6.029,13.3057,4.60111,2470.684,2022-8-26T08:02:27Z
2022-08-26T06:03:40Z,42.805,6.029,13.3064,4.60077,2470.67,2022-8-26T08:05:30Z
2022-08-26T06:06:43Z,42.805,6.029,13.3066,4.60076,2470.661,2022-8-26T08:08:34Z
2022-08-26T06:09:46Z,42.805,6.029,13.3070,4.60072,2470.646,2022-8-26T08:11:37Z
2022-08-26T06:12:49Z,42.805,6.029,13.3093,4.60098,2470.646,2022-8-26T08:14:40Z
2022-08-26T06:15:53Z,42.805,6.029,13.3056,4.60110,2470.624,2022-8-26T08:17:43Z
2022-08-26T06:18:56Z,42.805,6.029,13.3072,4.60123,2470.637,2022-8-26T08:20:46Z
2022-08-26T06:21:59Z,42.805,6.029,13.3082,4.60123,2470.646,2022-8-26T08:23:49Z
2022-08-26T06:25:02Z,42.805,6.029,13.3064,4.60110,2470.646,2022-8-26T08:26:52Z
2022-08-26T06:28:05Z,42.805,6.029,13.3055,4.60124,2470.67,2022-8-26T08:29:55Z
2022-08-26T06:31:08Z,42.805,6.029,13.3076,4.60095,2470.67,2022-8-26T08:32:59Z
2022-08-26T06:34:11Z,42.805,6.029,13.3050,4.60110,2470.646,2022-8-26T08:36:02Z
2022-08-26T06:37:14Z,42.805,6.029,13.3040,4.60083,2470.67,2022-8-26T08:39:05Z
2022-08-26T06:40:18Z,42.805,6.029,13.3050,4.60135,2470.624,2022-8-26T08:42:08Z
2022-08-26T06:43:21Z,42.805,6.029,13.3024,4.60112,2470.624,2022-8-26T08:45:11Z
2022-08-26T06:46:24Z,42.805,6.029,13.3045,4.60123,2470.661,2022-8-26T08:48:14Z
2022-08-26T06:49:27Z,42.805,6.029,13.3050,4.60132,2470.637,2022-8-26T08:51:17Z
2022-08-26T06:52:30Z,42.805,6.029,13.3032,4.60135,2470.646,2022-8-26T08:54:20Z
2022-08-26T06:55:33Z,42.805,6.029,13.3061,4.60127,2470.646,2022-8-26T08:57:23Z
2022-08-26T06:58:36Z,42.805,6.029,13.3040,4.60129,2470.661,2022-8-26T09:00:27Z
2022-08-26T07:01:39Z,42.805,6.029,13.3082,4.60097,2470.637,2022-8-26T09:03:30Z
2022-08-26T07:04:42Z,42.805,6.029,13.3070,4.60114,2470.661,2022-8-26T09:06:33Z
2022-08-26T07:07:46Z,42.805,6.029,13.3070,4.60147,2470.646,2022-8-26T09:09:36Z
2022-08-26T07:10:49Z,42.805,6.029,13.3048,4.60121,2470.661,2022-8-26T09:12:39Z
2022-08-26T07:13:52Z,42.805,6.029,13.3073,4.60127,2470.6,2022-8-26T09:15:42Z
2022-08-26T07:16:55Z,42.805,6.029,13.3065,4.60126,2470.624,2022-8-26T09:18:45Z
2022-08-26T07:19:58Z,42.805,6.029,13.3051,4.60142,2470.646,2022-8-26T09:21:48Z
2022-08-26T07:23:01Z,42.805,6.029,13.3056,4.60135,2470.624,2022-8-26T09:24:52Z
2022-08-26T07:26:04Z,42.805,6.029,13.3044,4.60157,2470.637,2022-8-26T09:27:55Z
2022-08-26T07:29:07Z,42.805,6.029,13.3041,4.60161,2470.661,2022-8-26T09:30:58Z
2022-08-26T07:32:11Z,42.805,6.029,13.3041,4.60162,2470.637,2022-8-26T09:34:01Z
2022-08-26T07:35:14Z,42.805,6.029,13.3043,4.60115,2470.624,2022-8-26T09:37:04Z
2022-08-26T07:38:17Z,42.805,6.029,13.3032,4.60141,2470.624,2022-8-26T09:40:07Z
2022-08-26T07:41:20Z,42.805,6.029,13.3056,4.60128,2470.6,2022-8-26T09:43:10Z
2022-08-26T07:44:23Z,42.805,6.029,13.3078,4.60153,2470.614,2022-8-26T09:46:13Z
2022-08-26T07:47:26Z,42.805,6.029,13.3036,4.60102,2470.614,2022-8-26T09:49:17Z
2022-08-26T07:50:29Z,42.805,6.029,13.3068,4.60107,2470.637,2022-8-26T09:52:20Z
2022-08-26T07:53:32Z,42.805,6.029,13.3089,4.60084,2470.624,2022-8-26T09:55:23Z
2022-08-26T07:56:36Z,42.805,6.029,13.3082,4.60107,2470.624,2022-8-26T09:58:26Z
2022-08-26T07:59:39Z,42.805,6.029,13.3046,4.60114,2470.6,2022-8-26T10:01:29Z
2022-08-26T08:02:42Z,42.805,6.029,13.3043,4.60125,2470.624,2022-8-26T10:04:32Z
2022-08-26T08:05:45Z,42.805,6.029,13.3060,4.60143,2470.591,2022-8-26T10:07:35Z
2022-08-26T08:08:48Z,42.805,6.029,13.3078,4.60128,2470.646,2022-8-26T10:10:38Z
2022-08-26T08:11:51Z,42.805,6.029,13.3069,4.60147,2470.6,2022-8-26T10:13:42Z
2022-08-26T08:14:54Z,42.805,6.029,13.3082,4.60112,2470.624,2022-8-26T10:16:45Z
2022-08-26T08:17:57Z,42.805,6.029,13.3091,4.60175,2470.614,2022-8-26T10:19:48Z
2022-08-26T08:21:01Z,42.805,6.029,13.3095,4.60128,2470.6,2022-8-26T10:22:51Z
2022-08-26T08:24:04Z,42.805,6.029,13.3081,4.60211,2470.6,2022-8-26T10:25:54Z
2022-08-26T08:27:07Z,42.805,6.029,13.3079,4.60137,2470.637,2022-8-26T10:28:57Z
2022-08-26T08:30:10Z,42.805,6.029,13.3077,4.60170,2470.624,2022-8-26T10:32:00Z
2022-08-26T08:33:13Z,42.805,6.029,13.3089,4.60149,2470.577,2022-8-26T10:35:03Z
2022-08-26T08:36:16Z,42.805,6.029,13.3075,4.60116,2470.6,2022-8-26T10:38:07Z
2022-08-26T08:39:19Z,42.805,6.029,13.3070,4.60096,2470.614,2022-8-26T10:41:10Z
2022-08-26T08:42:22Z,42.805,6.029,13.3077,4.60146,2470.614,2022-8-26T10:44:13Z
2022-08-26T08:45:26Z,42.805,6.029,13.3072,4.60137,2470.614,2022-8-26T10:47:16Z
2022-08-26T08:48:29Z,42.805,6.029,13.3085,4.60135,2470.591,2022-8-26T10:50:19Z
2022-08-26T08:51:32Z,42.805,6.029,13.3085,4.60108,2470.567,2022-8-26T10:53:22Z
2022-08-26T08:54:35Z,42.805,6.029,13.3078,4.60135,2470.591,2022-8-26T10:56:25Z
2022-08-26T08:57:38Z,42.805,6.029,13.3084,4.60147,2470.614,2022-8-26T10:59:28Z
2022-08-26T09:00:41Z,42.805,6.029,13.3087,4.60096,2470.544,2022-8-26T11:02:32Z
2022-08-26T09:03:44Z,42.805,6.029,13.3074,4.60120,2470.563,2022-8-26T11:05:35Z
2022-08-26T09:06:47Z,42.805,6.029,13.3077,4.60152,2470.6,2022-8-26T11:08:38Z
2022-08-26T09:09:51Z,42.805,6.029,13.3065,4.60125,2470.614,2022-8-26T11:11:41Z
2022-08-26T09:12:54Z,42.805,6.029,13.3084,4.60182,2470.553,2022-8-26T11:14:44Z
2022-08-26T09:15:57Z,42.805,6.029,13.3090,4.60119,2470.591,2022-8-26T11:17:47Z
2022-08-26T09:19:00Z,42.805,6.029,13.3092,4.60104,2470.6,2022-8-26T11:20:50Z
2022-08-26T09:22:03Z,42.805,6.029,13.3091,4.60098,2470.567,2022-8-26T11:23:53Z
2022-08-26T09:25:06Z,42.805,6.029,13.3096,4.60129,2470.591,2022-8-26T11:26:57Z
2022-08-26T09:28:09Z,42.805,6.029,13.3088,4.60110,2470.6,2022-8-26T11:30:00Z
2022-08-26T09:31:12Z,42.805,6.029,13.3074,4.60125,2470.567,2022-8-26T11:33:03Z
2022-08-26T09:34:16Z,42.805,6.029,13.3050,4.60121,2470.567,2022-8-26T11:36:06Z
2022-08-26T09:37:19Z,42.805,6.029,13.3067,4.60126,2470.591,2022-8-26T11:39:09Z
2022-08-26T09:40:22Z,42.805,6.029,13.3082,4.60133,2470.553,2022-8-26T11:42:12Z
2022-08-26T09:43:25Z,42.805,6.029,13.3075,4.60125,2470.567,2022-8-26T11:45:15Z
2022-08-26T09:46:28Z,42.805,6.029,13.3061,4.60092,2470.577,2022-8-26T11:48:18Z
2022-08-26T09:49:31Z,42.805,6.029,13.3061,4.60111,2470.567,2022-8-26T11:51:22Z
2022-08-26T09:52:34Z,42.805,6.029,13.3054,4.60101,2470.544,2022-8-26T11:54:25Z
2022-08-26T09:55:37Z,42.805,6.029,13.3054,4.60091,2470.567,2022-8-26T11:57:28Z
2022-08-26T09:58:41Z,42.805,6.029,13.3063,4.60125,2470.567,2022-8-26T12:00:31Z
2022-08-26T10:01:44Z,42.805,6.029,13.3061,4.60142,2470.567,2022-8-26T12:03:34Z
2022-08-26T10:04:47Z,42.805,6.029,13.3059,4.60126,2470.53,2022-8-26T12:06:37Z
2022-08-26T10:07:50Z,42.805,6.029,13.3056,4.60107,2470.591,2022-8-26T12:09:40Z
2022-08-26T10:10:53Z,42.805,6.029,13.3067,4.60117,2470.567,2022-8-26T12:12:43Z
2022-08-26T10:13:56Z,42.805,6.029,13.3066,4.60113,2470.544,2022-8-26T12:15:47Z
2022-08-26T10:16:59Z,42.805,6.029,13.3072,4.60114,2470.553,2022-8-26T12:18:50Z
2022-08-26T10:20:02Z,42.805,6.029,13.3030,4.60084,2470.553,2022-8-26T12:21:53Z
2022-08-26T10:23:06Z,42.805,6.029,13.3051,4.60094,2470.553,2022-8-26T12:24:56Z
2022-08-26T10:26:09Z,42.805,6.029,13.3044,4.60087,2470.53,2022-8-26T12:27:59Z
2022-08-26T10:29:12Z,42.805,6.029,13.3041,4.60092,2470.507,2022-8-26T12:31:02Z
2022-08-26T10:32:15Z,42.805,6.029,13.3048,4.60114,2470.567,2022-8-26T12:34:05Z
2022-08-26T10:35:18Z,42.805,6.029,13.3057,4.60107,2470.567,2022-8-26T12:37:08Z
2022-08-26T10:38:21Z,42.805,6.029,13.3056,4.60093,2470.507,2022-8-26T12:40:12Z
2022-08-26T10:41:24Z,42.805,6.029,13.3056,4.60084,2470.53,2022-8-26T12:43:15Z
2022-08-26T10:44:27Z,42.805,6.029,13.3064,4.60084,2470.507,2022-8-26T12:46:18Z
2022-08-26T10:47:31Z,42.805,6.029,13.3048,4.60096,2470.53,2022-8-26T12:49:21Z
2022-08-26T10:50:34Z,42.805,6.029,13.3041,4.60072,2470.507,2022-8-26T12:52:24Z
2022-08-26T10:53:37Z,42.805,6.029,13.3092,4.60067,2470.497,2022-8-26T12:55:27Z
2022-08-26T10:56:40Z,42.805,6.029,13.3060,4.60091,2470.544,2022-8-26T12:58:30Z
2022-08-26T10:59:43Z,42.805,6.029,13.3041,4.60089,2470.53,2022-8-26T13:01:33Z
2022-08-26T11:02:46Z,42.805,6.029,13.3057,4.60079,2470.53,2022-8-26T13:04:37Z
2022-08-26T11:05:49Z,42.805,6.029,13.3076,4.60084,2470.507,2022-8-26T13:07:40Z
2022-08-26T11:08:53Z,42.805,6.029,13.3053,4.60108,2470.507,2022-8-26T13:10:43Z
2022-08-26T11:11:56Z,42.805,6.029,13.3050,4.60086,2470.52,2022-8-26T13:13:46Z
2022-08-26T11:14:59Z,42.805,6.029,13.3049,4.60093,2470.52,2022-8-26T13:16:49Z
2022-08-26T11:18:02Z,42.805,6.029,13.3043,4.60089,2470.507,2022-8-26T13:19:52Z
2022-08-26T11:21:05Z,42.805,6.029,13.3036,4.60106,2470.52,2022-8-26T13:22:55Z
2022-08-26T11:24:08Z,42.805,6.029,13.3050,4.60097,2470.507,2022-8-26T13:25:58Z
2022-08-26T11:27:11Z,42.805,6.029,13.3043,4.60074,2470.53,2022-8-26T13:29:02Z
2022-08-26T11:30:14Z,42.805,6.029,13.3036,4.60087,2470.497,2022-8-26T13:32:05Z
2022-08-26T11:33:18Z,42.805,6.029,13.3034,4.60081,2470.497,2022-8-26T13:35:08Z
2022-08-26T11:36:21Z,42.805,6.029,13.3043,4.60101,2470.483,2022-8-26T13:38:11Z
2022-08-26T11:39:24Z,42.805,6.029,13.3026,4.60111,2470.52,2022-8-26T13:41:14Z
2022-08-26T11:42:27Z,42.805,6.029,13.3053,4.60074,2470.483,2022-8-26T13:44:17Z
2022-08-26T11:45:30Z,42.805,6.029,13.3054,4.60069,2470.483,2022-8-26T13:47:20Z
2022-08-26T11:48:33Z,42.805,6.029,13.3061,4.60072,2470.497,2022-8-26T13:50:24Z
2022-08-26T11:51:36Z,42.805,6.029,13.3036,4.60090,2470.483,2022-8-26T13:53:27Z
2022-08-26T11:54:39Z,42.805,6.029,13.3056,4.60087,2470.497,2022-8-26T13:56:30Z
2022-08-26T11:57:43Z,42.805,6.029,13.3040,4.60077,2470.497,2022-8-26T13:59:33Z
2022-08-26T12:00:46Z,42.805,6.029,13.3051,4.60090,2470.52,2022-8-26T14:02:36Z
2022-08-26T12:03:49Z,42.805,6.029,13.3048,4.60073,2470.497,2022-8-26T14:05:39Z
2022-08-26T12:06:52Z,42.805,6.029,13.3061,4.60088,2470.483,2022-8-26T14:08:42Z
2022-08-26T12:09:55Z,42.805,6.029,13.3064,4.60087,2470.497,2022-8-26T14:11:45Z
2022-08-26T12:12:58Z,42.805,6.029,13.3031,4.60090,2470.483,2022-8-26T14:14:49Z
2022-08-26T12:16:01Z,42.805,6.029,13.3070,4.60079,2470.497,2022-8-26T14:17:52Z
2022-08-26T12:19:04Z,42.805,6.029,13.3061,4.60070,2470.497,2022-8-26T14:20:55Z
2022-08-26T12:22:08Z,42.805,6.029,13.3044,4.60079,2470.474,2022-8-26T14:23:58Z
2022-08-26T12:25:11Z,42.805,6.029,13.3048,4.60073,2470.474,2022-8-26T14:27:01Z
2022-08-26T12:28:14Z,42.805,6.029,13.3076,4.60074,2470.52,2022-8-26T14:30:04Z
2022-08-26T12:31:17Z,42.805,6.029,13.3063,4.60092,2470.474,2022-8-26T14:33:07Z
2022-08-26T12:34:20Z,42.805,6.029,13.3080,4.60084,2470.437,2022-8-26T14:36:10Z
2022-08-26T12:37:23Z,42.805,6.029,13.3063,4.60081,2470.52,2022-8-26T14:39:14Z
2022-08-26T12:40:26Z,42.805,6.029,13.3057,4.60079,2470.46,2022-8-26T14:42:17Z
2022-08-26T12:43:29Z,42.805,6.029,13.3046,4.60087,2470.46,2022-8-26T14:45:20Z
2022-08-26T12:46:33Z,42.805,6.029,13.3053,4.60074,2470.483,2022-8-26T14:48:23Z
2022-08-26T12:49:36Z,42.805,6.029,13.3072,4.60080,2470.437,2022-8-26T14:51:26Z
2022-08-26T12:52:39Z,42.805,6.029,13.3058,4.60084,2470.497,2022-8-26T14:54:29Z
2022-08-26T12:55:42Z,42.805,6.029,13.3055,4.60087,2470.483,2022-8-26T14:57:32Z
2022-08-26T12:58:45Z,42.805,6.029,13.3058,4.60093,2470.483,2022-8-26T15:00:35Z
2022-08-26T13:01:48Z,42.805,6.029,13.3059,4.60077,2470.497,2022-8-26T15:03:39Z
2022-08-26T13:04:51Z,42.805,6.029,13.3061,4.60078,2470.437,2022-8-26T15:06:42Z
2022-08-26T13:07:54Z,42.805,6.029,13.3049,4.60075,2470.474,2022-8-26T15:09:45Z
2022-08-26T13:10:58Z,42.805,6.029,13.3060,4.60079,2470.474,2022-8-26T15:12:48Z
2022-08-26T13:14:01Z,42.805,6.029,13.3046,4.60084,2470.497,2022-8-26T15:15:51Z
2022-08-26T13:17:04Z,42.805,6.029,13.3051,4.60082,2470.52,2022-8-26T15:18:54Z
2022-08-26T13:20:07Z,42.805,6.029,13.3054,4.60085,2470.52,2022-8-26T15:21:57Z
2022-08-26T13:23:10Z,42.805,6.029,13.3054,4.60089,2470.483,2022-8-26T15:25:00Z
2022-08-26T13:26:13Z,42.805,6.029,13.3053,4.60088,2470.497,2022-8-26T15:28:04Z
2022-08-26T13:29:16Z,42.805,6.029,13.3057,4.60074,2470.53,2022-8-26T15:31:07Z
2022-08-26T13:32:19Z,42.805,6.029,13.3046,4.60077,2470.483,2022-8-26T15:34:10Z
2022-08-26T13:35:23Z,42.805,6.029,13.3040,4.60074,2470.52,2022-8-26T15:37:13Z
2022-08-26T13:38:26Z,42.805,6.029,13.3048,4.60070,2470.52,2022-8-26T15:40:16Z
2022-08-26T13:41:29Z,42.805,6.029,13.3059,4.60076,2470.483,2022-8-26T15:43:19Z
2022-08-26T13:44:32Z,42.805,6.029,13.3061,4.60081,2470.483,2022-8-26T15:46:22Z
2022-08-26T13:47:35Z,42.805,6.029,13.3069,4.60092,2470.46,2022-8-26T15:49:25Z
2022-08-26T13:50:38Z,42.805,6.029,13.3054,4.60077,2470.483,2022-8-26T15:52:29Z
2022-08-26T13:53:41Z,42.805,6.029,13.3050,4.60089,2470.497,2022-8-26T15:55:32Z
2022-08-26T13:56:44Z,42.805,6.029,13.3048,4.60084,2470.497,2022-8-26T15:58:35Z
2022-08-26T13:59:48Z,42.805,6.029,13.3054,4.60074,2470.483,2022-8-26T16:01:38Z
2022-08-26T14:02:51Z,42.805,6.029,13.3056,4.60075,2470.507,2022-8-26T16:04:41Z
2022-08-26T14:05:54Z,42.805,6.029,13.3059,4.60082,2470.507,2022-8-26T16:07:44Z
2022-08-26T14:08:57Z,42.805,6.029,13.3042,4.60091,2470.497,2022-8-26T16:10:47Z
2022-08-26T14:12:00Z,42.805,6.029,13.3050,4.60079,2470.483,2022-8-26T16:13:50Z
2022-08-26T14:15:03Z,42.805,6.029,13.3051,4.60082,2470.474,2022-8-26T16:16:54Z
2022-08-26T14:18:06Z,42.805,6.029,13.3061,4.60077,2470.483,2022-8-26T16:19:57Z
2022-08-26T14:21:09Z,42.805,6.029,13.3049,4.60103,2470.483,2022-8-26T16:23:00Z
2022-08-26T14:24:13Z,42.805,6.029,13.3107,4.60114,2470.497,2022-8-26T16:26:03Z
2022-08-26T14:27:16Z,42.805,6.029,13.3073,4.60093,2470.497,2022-8-26T16:29:06Z
2022-08-26T14:30:19Z,42.805,6.029,13.3019,4.60097,2470.497,2022-8-26T16:32:09Z
2022-08-26T14:33:22Z,42.805,6.029,13.3061,4.60104,2470.483,2022-8-26T16:35:12Z
2022-08-26T14:36:25Z,42.805,6.029,13.3012,4.60094,2470.52,2022-8-26T16:38:15Z
2022-08-26T14:39:28Z,42.805,6.029,13.3052,4.60077,2470.507,2022-8-26T16:41:19Z
2022-08-26T14:42:31Z,42.805,6.029,13.3014,4.60091,2470.507,2022-8-26T16:44:22Z
2022-08-26T14:45:34Z,42.805,6.029,13.3007,4.60117,2470.52,2022-8-26T16:47:25Z
2022-08-26T14:48:38Z,42.805,6.029,13.3014,4.60070,2470.53,2022-8-26T16:50:28Z
2022-08-26T14:51:41Z,42.805,6.029,13.3009,4.60077,2470.553,2022-8-26T16:53:31Z
2022-08-26T14:54:44Z,42.805,6.029,13.3014,4.60067,2470.53,2022-8-26T16:56:34Z
2022-08-26T14:57:47Z,42.805,6.029,13.3010,4.60072,2470.507,2022-8-26T16:59:37Z
2022-08-26T15:00:50Z,42.805,6.029,13.3006,4.60083,2470.52,2022-8-26T17:02:40Z
2022-08-26T15:03:53Z,42.805,6.029,13.3009,4.60072,2470.53,2022-8-26T17:05:44Z
2022-08-26T15:06:56Z,42.805,6.029,13.3009,4.60084,2470.52,2022-8-26T17:08:47Z
2022-08-26T15:10:00Z,42.805,6.029,13.3011,4.60081,2470.52,2022-8-26T17:11:51Z